This is the latest recevied weather packets stored in our database for station/object AB4KY. If no packets are shown the sender has not sent any weather packets the latest 10 day(s).
| Time | Temp. | Humidity | Pressure | Rain* | Wind** | Luminosity | Snow |
|---|---|---|---|---|---|---|---|
| 1777530095 | 9.44° C | 87% | 1013.2 hPa | 0 mm | - | 0 W/m² | - |
| 1777529793 | 9.44° C | 84% | 1013.4 hPa | 0 mm | - | 0 W/m² | - |
| 1777529489 | 9.44° C | 84% | 1013.3 hPa | 0 mm | - | 0 W/m² | - |
| 1777529187 | 9.44° C | 85% | 1013.4 hPa | 0 mm | - | 0 W/m² | - |
| 1777528882 | 10° C | 85% | 1013.3 hPa | 0 mm | - | 0 W/m² | - |
| 1777528579 | 10° C | 84% | 1013.4 hPa | 0 mm | - | 0 W/m² | - |
| 1777528276 | 10° C | 83% | 1013.5 hPa | 0 mm | - | 0 W/m² | - |
| 1777527975 | 10° C | 86% | 1013.5 hPa | 0 mm | - | 0 W/m² | - |
| 1777527670 | 10° C | 85% | 1013.5 hPa | 0 mm | - | 0 W/m² | - |
| 1777527365 | 10° C | 86% | 1013.5 hPa | 0 mm | - | 0 W/m² | - |
| 1777527061 | 10° C | 88% | 1013.6 hPa | 0 mm | - | 0 W/m² | - |
| 1777526757 | 10° C | 87% | 1013.3 hPa | 0 mm | - | 0 W/m² | - |
| 1777526452 | 10° C | 86% | 1013.4 hPa | 0 mm | - | 0 W/m² | - |
| 1777526146 | 10° C | 85% | 1013.4 hPa | 0 mm | - | 0 W/m² | - |
| 1777525843 | 10° C | 86% | 1013.2 hPa | 0 mm | - | 0 W/m² | - |
| 1777525541 | 10.56° C | 86% | 1013.5 hPa | 0 mm | - | 0 W/m² | - |
| 1777525237 | 10.56° C | 84% | 1013.4 hPa | 0 mm | - | 0 W/m² | - |
| 1777524933 | 10.56° C | 83% | 1013.4 hPa | 0 mm | - | 0 W/m² | - |
| 1777524631 | 10.56° C | 85% | 1013.4 hPa | 0 mm | - | 0 W/m² | - |
| 1777524329 | 10.56° C | 83% | 1013.1 hPa | 0 mm | - | 0 W/m² | - |
| 1777524024 | 10.56° C | 84% | 1013.2 hPa | 0 mm | - | 0 W/m² | - |
| 1777523720 | 11.11° C | 84% | 1013.1 hPa | 0 mm | - | 0 W/m² | - |
| 1777523417 | 11.11° C | 82% | 1013.1 hPa | 0 mm | - | 0 W/m² | - |
| 1777523114 | 11.11° C | 83% | 1013 hPa | 0 mm | - | 0 W/m² | - |
| 1777522804 | 11.11° C | 82% | 1013.2 hPa | 0 mm | - | 0 W/m² | - |
* Rain latest hour (hover to see other rain measurements)
** Current wind speed in m/s (hover to see current wind gust speed)